CZ-3C DEB, 40204

Orbit data source: Space-Track

CZ-3C DEB, 40204 is space debris in HEO originally from a launch on Fri, 24 Feb 2012 UTC launched from the Xichang Space Center, China (XSC). Debris objects in space refer to the collection of defunct objects orbiting the Earth. Examples of debris include non-operational satellites, rocket bodies, and fragments generated from explosions, collisions, or faulty payload assembly.

Loading next visibility...
Identifier
40204, 2012-008P
Orbit
HEO
Country
Flag of CNCN / PRC
Related business
Manufacturer
CALT
Mission
Spacecraft
Bus & Motor
Unknown
Mass
Unknown
Launch date (UTC)
2012-02-24 (14 years ago)
Launch vehicle
Unknown
Launch site
Xichang Space Center, China (XSC)
Object type
Payload
Rocket body
Debris
Shape & HBR
Unknown shape, 0.1 m
Radar Cross Section
Medium (>0.1 m² and <1 m²)

Expand to show TLE details & history
Last TLE update: 1 day ago

TLE from 1 day ago
0 CZ-3C DEB
1 40204U 12008P   25287.56945555 -.00000099  00000-0  30371-2 0  9994
2 40204  20.3329  99.1229 7080476  69.4237 349.6868  2.27022503 91137
Epoch: 2025-10-14T13:40Z
TLE epoch observation values (Epoch: 2025-10-14T13:40:00.959Z)
Latitude
0.00006°
Longitude
-129.23559°
Altitude
3,376.076 km
Speed
8.088 km/s
True Right ascension
06h 36m 29s
True Declination
0° 00' 00"
Sunlit
Object was in daylight at epoch
Visualization orbit readout
Latitude
Unknown
Longitude
Unknown
Altitude
Unknown
Speed
Unknown
Apparent Right ascension
Unknown
Apparent Declination
Unknown
Sunlit
N/A
Visualization observer readout
Local Sidereal Time
12:33:30
Azimuth
Unknown
Elevation
Unknown
Doppler factor
Unknown
Orbital elements
Apogee altitude
35,398.216 km
Perigee altitude
762.593 km
Semi-major axis
24,458.541 km
Eccentricity
0.70805
Inclination
20.3329°
RAAN
99.1229°
Arg. of periapsis
69.4237°
True anomaly
291.35438°
Mean anomaly
349.6868°
Eccentric anomaly
328.47479°
Mean motion
0.56741 °/min
Orbital period
634.46 mins
BSTAR
0.0030371
Loading maneuver chart data...
Computing Atmospheric mass density...
Loading historical data...
Loading historical data...
Loading historical data...
Loading historical data...
Loading historical data...
Loading historical data...
Loading historical data...

Documentation

Showing up to 5 results
|